Year,Month,Day,Hour,Minute,Value (Times are PST for insolation in W/m^2)
2021,08,03,00,00,0.00
2021,08,03,00,01,0.00
2021,08,03,00,02,0.00
2021,08,03,00,03,0.00
2021,08,03,00,04,0.00
2021,08,03,00,05,0.00
2021,08,03,00,06,0.00
2021,08,03,00,07,0.00
2021,08,03,00,08,0.00
2021,08,03,00,09,0.00
2021,08,03,00,10,0.00
2021,08,03,00,11,0.00
2021,08,03,00,12,0.00
2021,08,03,00,13,0.00
2021,08,03,00,14,0.00
2021,08,03,00,15,0.00
2021,08,03,00,16,0.00
2021,08,03,00,17,0.00
2021,08,03,00,18,0.00
2021,08,03,00,19,0.00
2021,08,03,00,20,0.00
2021,08,03,00,21,0.00
2021,08,03,00,22,0.00
2021,08,03,00,23,0.00
2021,08,03,00,24,0.00
2021,08,03,00,25,0.00
2021,08,03,00,26,0.00
2021,08,03,00,27,0.00
2021,08,03,00,28,0.00
2021,08,03,00,29,0.00
2021,08,03,00,30,0.00
2021,08,03,00,31,0.00
2021,08,03,00,32,0.00
2021,08,03,00,33,0.00
2021,08,03,00,34,0.00
2021,08,03,00,35,0.00
2021,08,03,00,36,0.00
2021,08,03,00,37,0.00
2021,08,03,00,38,0.00
2021,08,03,00,39,0.00
2021,08,03,00,40,0.00
2021,08,03,00,41,0.00
2021,08,03,00,42,0.00
2021,08,03,00,43,0.00
2021,08,03,00,44,0.00
2021,08,03,00,45,0.00
2021,08,03,00,46,0.00
2021,08,03,00,47,0.00
2021,08,03,00,48,0.00
2021,08,03,00,49,0.00
2021,08,03,00,50,0.00
2021,08,03,00,51,0.00
2021,08,03,00,52,0.00
2021,08,03,00,53,0.00
2021,08,03,00,54,0.00
2021,08,03,00,55,0.00
2021,08,03,00,56,0.00
2021,08,03,00,57,0.00
2021,08,03,00,58,0.00
2021,08,03,00,59,0.00
2021,08,03,01,00,0.00
2021,08,03,01,01,0.00
2021,08,03,01,02,0.00
2021,08,03,01,03,0.00
2021,08,03,01,04,0.00
2021,08,03,01,05,0.00
2021,08,03,01,06,0.00
2021,08,03,01,07,0.00
2021,08,03,01,08,0.00
2021,08,03,01,09,0.00
2021,08,03,01,10,0.00
2021,08,03,01,11,0.00
2021,08,03,01,12,0.00
2021,08,03,01,13,0.00
2021,08,03,01,14,0.00
2021,08,03,01,15,0.00
2021,08,03,01,16,0.00
2021,08,03,01,17,0.00
2021,08,03,01,18,0.00
2021,08,03,01,19,0.00
2021,08,03,01,20,0.00
2021,08,03,01,21,0.00
2021,08,03,01,22,0.00
2021,08,03,01,23,0.00
2021,08,03,01,24,0.00
2021,08,03,01,25,0.00
2021,08,03,01,26,0.00
2021,08,03,01,27,0.00
2021,08,03,01,28,0.00
2021,08,03,01,29,0.00
2021,08,03,01,30,0.00
2021,08,03,01,31,0.00
2021,08,03,01,32,0.00
2021,08,03,01,33,0.00
2021,08,03,01,34,0.00
2021,08,03,01,35,0.00
2021,08,03,01,36,0.00
2021,08,03,01,37,0.00
2021,08,03,01,38,0.00
2021,08,03,01,39,0.00
2021,08,03,01,40,0.00
2021,08,03,01,41,0.00
2021,08,03,01,42,0.00
2021,08,03,01,43,0.00
2021,08,03,01,44,0.00
2021,08,03,01,45,0.00
2021,08,03,01,46,0.00
2021,08,03,01,47,0.00
2021,08,03,01,48,0.00
2021,08,03,01,49,0.00
2021,08,03,01,50,0.00
2021,08,03,01,51,0.00
2021,08,03,01,52,0.00
2021,08,03,01,53,0.00
2021,08,03,01,54,0.00
2021,08,03,01,55,0.00
2021,08,03,01,56,0.00
2021,08,03,01,57,0.00
2021,08,03,01,58,0.00
2021,08,03,01,59,0.00
2021,08,03,02,00,0.00
2021,08,03,02,01,0.00
2021,08,03,02,02,0.00
2021,08,03,02,03,0.00
2021,08,03,02,04,0.00
2021,08,03,02,05,0.00
2021,08,03,02,06,0.00
2021,08,03,02,07,0.00
2021,08,03,02,08,0.00
2021,08,03,02,09,0.00
2021,08,03,02,10,0.00
2021,08,03,02,11,0.00
2021,08,03,02,12,0.00
2021,08,03,02,13,0.00
2021,08,03,02,14,0.00
2021,08,03,02,15,0.00
2021,08,03,02,16,0.00
2021,08,03,02,17,0.00
2021,08,03,02,18,0.00
2021,08,03,02,19,0.00
2021,08,03,02,20,0.00
2021,08,03,02,21,0.00
2021,08,03,02,22,0.00
2021,08,03,02,23,0.00
2021,08,03,02,24,0.00
2021,08,03,02,25,0.00
2021,08,03,02,26,0.00
2021,08,03,02,27,0.00
2021,08,03,02,28,0.00
2021,08,03,02,29,0.00
2021,08,03,02,30,0.00
2021,08,03,02,31,0.00
2021,08,03,02,32,0.00
2021,08,03,02,33,0.00
2021,08,03,02,34,0.00
2021,08,03,02,35,0.00
2021,08,03,02,36,0.00
2021,08,03,02,37,0.00
2021,08,03,02,38,0.00
2021,08,03,02,39,0.00
2021,08,03,02,40,0.00
2021,08,03,02,41,0.00
2021,08,03,02,42,0.00
2021,08,03,02,43,0.00
2021,08,03,02,44,0.00
2021,08,03,02,45,0.00
2021,08,03,02,46,0.00
2021,08,03,02,47,0.00
2021,08,03,02,48,0.00
2021,08,03,02,49,0.00
2021,08,03,02,50,0.00
2021,08,03,02,51,0.00
2021,08,03,02,52,0.00
2021,08,03,02,53,0.00
2021,08,03,02,54,0.00
2021,08,03,02,55,0.00
2021,08,03,02,56,0.00
2021,08,03,02,57,0.00
2021,08,03,02,58,0.00
2021,08,03,02,59,0.00
2021,08,03,03,00,0.00
2021,08,03,03,01,0.00
2021,08,03,03,02,0.00
2021,08,03,03,03,0.00
2021,08,03,03,04,0.00
2021,08,03,03,05,0.00
2021,08,03,03,06,0.00
2021,08,03,03,07,0.00
2021,08,03,03,08,0.00
2021,08,03,03,09,0.00
2021,08,03,03,10,0.00
2021,08,03,03,11,0.00
2021,08,03,03,12,0.00
2021,08,03,03,13,0.00
2021,08,03,03,14,0.00
2021,08,03,03,15,0.00
2021,08,03,03,16,0.00
2021,08,03,03,17,0.00
2021,08,03,03,18,0.00
2021,08,03,03,19,0.00
2021,08,03,03,20,0.00
2021,08,03,03,21,0.00
2021,08,03,03,22,0.00
2021,08,03,03,23,0.00
2021,08,03,03,24,0.00
2021,08,03,03,25,0.00
2021,08,03,03,26,0.00
2021,08,03,03,27,0.00
2021,08,03,03,28,0.00
2021,08,03,03,29,0.00
2021,08,03,03,30,0.00
2021,08,03,03,31,0.00
2021,08,03,03,32,0.00
2021,08,03,03,33,0.00
2021,08,03,03,34,0.00
2021,08,03,03,35,0.00
2021,08,03,03,36,0.00
2021,08,03,03,37,0.00
2021,08,03,03,38,0.00
2021,08,03,03,39,0.00
2021,08,03,03,40,0.00
2021,08,03,03,41,0.00
2021,08,03,03,42,0.00
2021,08,03,03,43,0.00
2021,08,03,03,44,0.00
2021,08,03,03,45,0.00
2021,08,03,03,46,0.00
2021,08,03,03,47,0.00
2021,08,03,03,48,0.00
2021,08,03,03,49,0.00
2021,08,03,03,50,0.00
2021,08,03,03,51,0.00
2021,08,03,03,52,0.00
2021,08,03,03,53,0.00
2021,08,03,03,54,0.00
2021,08,03,03,55,0.00
2021,08,03,03,56,0.00
2021,08,03,03,57,0.00
2021,08,03,03,58,0.00
2021,08,03,03,59,0.00
2021,08,03,04,00,0.00
2021,08,03,04,01,0.00
2021,08,03,04,02,0.00
2021,08,03,04,03,0.00
2021,08,03,04,04,0.00
2021,08,03,04,05,0.00
2021,08,03,04,06,0.00
2021,08,03,04,07,0.00
2021,08,03,04,08,0.00
2021,08,03,04,09,0.00
2021,08,03,04,10,0.00
2021,08,03,04,11,0.00
2021,08,03,04,12,0.00
2021,08,03,04,13,0.00
2021,08,03,04,14,0.00
2021,08,03,04,15,0.00
2021,08,03,04,16,0.00
2021,08,03,04,17,0.00
2021,08,03,04,18,0.00
2021,08,03,04,19,0.00
2021,08,03,04,20,0.00
2021,08,03,04,21,0.00
2021,08,03,04,22,0.00
2021,08,03,04,23,0.00
2021,08,03,04,24,0.00
2021,08,03,04,25,0.00
2021,08,03,04,26,0.00
2021,08,03,04,27,0.00
2021,08,03,04,28,0.00
2021,08,03,04,29,0.00
2021,08,03,04,30,0.00
2021,08,03,04,31,0.00
2021,08,03,04,32,0.00
2021,08,03,04,33,0.00
2021,08,03,04,34,0.00
2021,08,03,04,35,0.00
2021,08,03,04,36,0.00
2021,08,03,04,37,0.00
2021,08,03,04,38,0.00
2021,08,03,04,39,0.00
2021,08,03,04,40,0.00
2021,08,03,04,41,0.00
2021,08,03,04,42,0.00
2021,08,03,04,43,0.00
2021,08,03,04,44,0.00
2021,08,03,04,45,0.00
2021,08,03,04,46,0.00
2021,08,03,04,47,0.00
2021,08,03,04,48,0.00
2021,08,03,04,49,0.00
2021,08,03,04,50,0.00
2021,08,03,04,51,0.00
2021,08,03,04,52,0.00
2021,08,03,04,53,0.00
2021,08,03,04,54,0.00
2021,08,03,04,55,0.00
2021,08,03,04,56,0.00
2021,08,03,04,57,0.00
2021,08,03,04,58,0.00
2021,08,03,04,59,0.00
2021,08,03,05,00,0.00
2021,08,03,05,01,0.00
2021,08,03,05,02,0.00
2021,08,03,05,03,0.00
2021,08,03,05,04,0.00
2021,08,03,05,05,0.00
2021,08,03,05,06,0.00
2021,08,03,05,07,0.00
2021,08,03,05,08,0.00
2021,08,03,05,09,0.00
2021,08,03,05,10,0.00
2021,08,03,05,11,0.00
2021,08,03,05,12,0.00
2021,08,03,05,13,0.00
2021,08,03,05,14,0.00
2021,08,03,05,15,0.00
2021,08,03,05,16,0.00
2021,08,03,05,17,0.00
2021,08,03,05,18,0.00
2021,08,03,05,19,0.00
2021,08,03,05,20,0.00
2021,08,03,05,21,0.00
2021,08,03,05,22,0.00
2021,08,03,05,23,0.00
2021,08,03,05,24,0.00
2021,08,03,05,25,0.00
2021,08,03,05,26,0.00
2021,08,03,05,27,0.00
2021,08,03,05,28,0.00
2021,08,03,05,29,0.00
2021,08,03,05,30,0.00
2021,08,03,05,31,0.00
2021,08,03,05,32,0.00
2021,08,03,05,33,0.00
2021,08,03,05,34,0.00
2021,08,03,05,35,0.00
2021,08,03,05,36,0.00
2021,08,03,05,37,0.00
2021,08,03,05,38,0.00
2021,08,03,05,39,0.00
2021,08,03,05,40,0.00
2021,08,03,05,41,0.00
2021,08,03,05,42,0.00
2021,08,03,05,43,0.00
2021,08,03,05,44,0.00
2021,08,03,05,45,0.00
2021,08,03,05,46,0.00
2021,08,03,05,47,0.00
2021,08,03,05,48,0.00
2021,08,03,05,49,3.10
2021,08,03,05,50,5.00
2021,08,03,05,51,5.00
2021,08,03,05,52,5.00
2021,08,03,05,53,5.00
2021,08,03,05,54,5.00
2021,08,03,05,55,5.90
2021,08,03,05,56,7.00
2021,08,03,05,57,8.50
2021,08,03,05,58,9.00
2021,08,03,05,59,11.00
2021,08,03,06,00,11.00
2021,08,03,06,01,11.30
2021,08,03,06,02,12.00
2021,08,03,06,03,12.00
2021,08,03,06,04,13.50
2021,08,03,06,05,14.00
2021,08,03,06,06,16.00
2021,08,03,06,07,16.40
2021,08,03,06,08,18.00
2021,08,03,06,09,18.50
2021,08,03,06,10,19.00
2021,08,03,06,11,20.40
2021,08,03,06,12,21.00
2021,08,03,06,13,22.90
2021,08,03,06,14,23.40
2021,08,03,06,15,25.40
2021,08,03,06,16,26.00
2021,08,03,06,17,27.20
2021,08,03,06,18,28.00
2021,08,03,06,19,29.70
2021,08,03,06,20,30.20
2021,08,03,06,21,32.00
2021,08,03,06,22,32.40
2021,08,03,06,23,33.00
2021,08,03,06,24,34.30
2021,08,03,06,25,35.00
2021,08,03,06,26,36.70
2021,08,03,06,27,37.20
2021,08,03,06,28,39.00
2021,08,03,06,29,39.00
2021,08,03,06,30,40.40
2021,08,03,06,31,44.30
2021,08,03,06,32,48.20
2021,08,03,06,33,50.70
2021,08,03,06,34,47.80
2021,08,03,06,35,52.20
2021,08,03,06,36,49.70
2021,08,03,06,37,51.90
2021,08,03,06,38,50.70
2021,08,03,06,39,59.10
2021,08,03,06,40,66.40
2021,08,03,06,41,70.50
2021,08,03,06,42,75.60
2021,08,03,06,43,74.00
2021,08,03,06,44,77.30
2021,08,03,06,45,75.80
2021,08,03,06,46,80.10
2021,08,03,06,47,77.70
2021,08,03,06,48,77.20
2021,08,03,06,49,79.00
2021,08,03,06,50,75.80
2021,08,03,06,51,78.40
2021,08,03,06,52,86.00
2021,08,03,06,53,89.00
2021,08,03,06,54,75.80
2021,08,03,06,55,86.70
2021,08,03,06,56,81.70
2021,08,03,06,57,73.30
2021,08,03,06,58,72.00
2021,08,03,06,59,81.10
2021,08,03,07,00,75.20
2021,08,03,07,01,82.70
2021,08,03,07,02,77.80
2021,08,03,07,03,81.80
2021,08,03,07,04,91.80
2021,08,03,07,05,104.00
2021,08,03,07,06,104.00
2021,08,03,07,07,107.70
2021,08,03,07,08,109.00
2021,08,03,07,09,113.70
2021,08,03,07,10,114.00
2021,08,03,07,11,113.70
2021,08,03,07,12,113.00
2021,08,03,07,13,115.90
2021,08,03,07,14,123.10
2021,08,03,07,15,119.10
2021,08,03,07,16,127.70
2021,08,03,07,17,130.40
2021,08,03,07,18,132.00
2021,08,03,07,19,133.40
2021,08,03,07,20,136.20
2021,08,03,07,21,135.50
2021,08,03,07,22,140.30
2021,08,03,07,23,142.40
2021,08,03,07,24,146.00
2021,08,03,07,25,147.00
2021,08,03,07,26,149.90
2021,08,03,07,27,151.00
2021,08,03,07,28,153.90
2021,08,03,07,29,155.80
2021,08,03,07,30,160.00
2021,08,03,07,31,162.30
2021,08,03,07,32,163.00
2021,08,03,07,33,166.00
2021,08,03,07,34,169.00
2021,08,03,07,35,171.20
2021,08,03,07,36,173.80
2021,08,03,07,37,176.10
2021,08,03,07,38,178.70
2021,08,03,07,39,182.50
2021,08,03,07,40,185.50
2021,08,03,07,41,188.30
2021,08,03,07,42,191.50
2021,08,03,07,43,192.80
2021,08,03,07,44,195.40
2021,08,03,07,45,199.20
2021,08,03,07,46,200.70
2021,08,03,07,47,204.00
2021,08,03,07,48,206.60
2021,08,03,07,49,209.90
2021,08,03,07,50,212.70
2021,08,03,07,51,213.10
2021,08,03,07,52,214.90
2021,08,03,07,53,218.70
2021,08,03,07,54,221.40
2021,08,03,07,55,225.40
2021,08,03,07,56,228.40
2021,08,03,07,57,231.50
2021,08,03,07,58,234.30
2021,08,03,07,59,237.50
2021,08,03,08,00,230.50
2021,08,03,08,01,231.00
2021,08,03,08,02,247.20
2021,08,03,08,03,236.20
2021,08,03,08,04,249.70
2021,08,03,08,05,256.90
2021,08,03,08,06,258.40
2021,08,03,08,07,261.50
2021,08,03,08,08,264.50
2021,08,03,08,09,266.20
2021,08,03,08,10,268.50
2021,08,03,08,11,270.70
2021,08,03,08,12,274.40
2021,08,03,08,13,278.70
2021,08,03,08,14,282.50
2021,08,03,08,15,285.00
2021,08,03,08,16,288.20
2021,08,03,08,17,292.90
2021,08,03,08,18,287.70
2021,08,03,08,19,253.80
2021,08,03,08,20,185.00
2021,08,03,08,21,266.80
2021,08,03,08,22,298.50
2021,08,03,08,23,301.40
2021,08,03,08,24,301.70
2021,08,03,08,25,308.30
2021,08,03,08,26,311.40
2021,08,03,08,27,316.40
2021,08,03,08,28,319.50
2021,08,03,08,29,324.50
2021,08,03,08,30,328.90
2021,08,03,08,31,331.50
2021,08,03,08,32,333.80
2021,08,03,08,33,335.90
2021,08,03,08,34,336.00
2021,08,03,08,35,336.70
2021,08,03,08,36,338.50
2021,08,03,08,37,339.00
2021,08,03,08,38,341.90
2021,08,03,08,39,344.80
2021,08,03,08,40,346.20
2021,08,03,08,41,348.40
2021,08,03,08,42,350.70
2021,08,03,08,43,353.50
2021,08,03,08,44,356.20
2021,08,03,08,45,358.50
2021,08,03,08,46,359.90
2021,08,03,08,47,364.00
2021,08,03,08,48,366.30
2021,08,03,08,49,367.80
2021,08,03,08,50,369.90
2021,08,03,08,51,372.20
2021,08,03,08,52,375.20
2021,08,03,08,53,376.00
2021,08,03,08,54,381.20
2021,08,03,08,55,384.10
2021,08,03,08,56,388.20
2021,08,03,08,57,390.00
2021,08,03,08,58,390.00
2021,08,03,08,59,378.40
2021,08,03,09,00,379.90
2021,08,03,09,01,390.70
2021,08,03,09,02,402.30
2021,08,03,09,03,406.70
2021,08,03,09,04,409.00
2021,08,03,09,05,410.60
2021,08,03,09,06,412.40
2021,08,03,09,07,414.70
2021,08,03,09,08,418.10
2021,08,03,09,09,420.80
2021,08,03,09,10,424.00
2021,08,03,09,11,426.40
2021,08,03,09,12,430.20
2021,08,03,09,13,431.70
2021,08,03,09,14,433.80
2021,08,03,09,15,438.10
2021,08,03,09,16,441.50
2021,08,03,09,17,443.70
2021,08,03,09,18,445.50
2021,08,03,09,19,447.20
2021,08,03,09,20,449.40
2021,08,03,09,21,451.70
2021,08,03,09,22,455.20
2021,08,03,09,23,457.40
2021,08,03,09,24,459.60
2021,08,03,09,25,462.40
2021,08,03,09,26,466.50
2021,08,03,09,27,468.70
2021,08,03,09,28,470.80
2021,08,03,09,29,473.10
2021,08,03,09,30,475.60
2021,08,03,09,31,478.70
2021,08,03,09,32,480.00
2021,08,03,09,33,481.90
2021,08,03,09,34,484.50
2021,08,03,09,35,486.70
2021,08,03,09,36,489.80
2021,08,03,09,37,491.10
2021,08,03,09,38,494.70
2021,08,03,09,39,497.40
2021,08,03,09,40,500.20
2021,08,03,09,41,502.40
2021,08,03,09,42,503.80
2021,08,03,09,43,508.40
2021,08,03,09,44,512.00
2021,08,03,09,45,513.10
2021,08,03,09,46,515.90
2021,08,03,09,47,518.20
2021,08,03,09,48,519.70
2021,08,03,09,49,523.40
2021,08,03,09,50,526.10
2021,08,03,09,51,527.40
2021,08,03,09,52,530.30
2021,08,03,09,53,533.50
2021,08,03,09,54,534.00
2021,08,03,09,55,536.90
2021,08,03,09,56,539.80
2021,08,03,09,57,541.40
2021,08,03,09,58,545.50
2021,08,03,09,59,547.00
2021,08,03,10,00,549.50
2021,08,03,10,01,553.20
2021,08,03,10,02,554.00
2021,08,03,10,03,556.50
2021,08,03,10,04,559.00
2021,08,03,10,05,560.10
2021,08,03,10,06,563.00
2021,08,03,10,07,564.40
2021,08,03,10,08,567.30
2021,08,03,10,09,569.60
2021,08,03,10,10,572.50
2021,08,03,10,11,573.20
2021,08,03,10,12,575.40
2021,08,03,10,13,577.30
2021,08,03,10,14,578.90
2021,08,03,10,15,581.30
2021,08,03,10,16,584.20
2021,08,03,10,17,585.00
2021,08,03,10,18,587.10
2021,08,03,10,19,590.10
2021,08,03,10,20,594.70
2021,08,03,10,21,596.90
2021,08,03,10,22,598.60
2021,08,03,10,23,599.00
2021,08,03,10,24,602.60
2021,08,03,10,25,603.30
2021,08,03,10,26,606.40
2021,08,03,10,27,608.00
2021,08,03,10,28,609.90
2021,08,03,10,29,612.60
2021,08,03,10,30,613.00
2021,08,03,10,31,616.40
2021,08,03,10,32,619.20
2021,08,03,10,33,621.00
2021,08,03,10,34,621.30
2021,08,03,10,35,622.90
2021,08,03,10,36,626.40
2021,08,03,10,37,630.20
2021,08,03,10,38,631.00
2021,08,03,10,39,633.10
2021,08,03,10,40,635.20
2021,08,03,10,41,636.70
2021,08,03,10,42,638.90
2021,08,03,10,43,641.30
2021,08,03,10,44,644.20
2021,08,03,10,45,645.00
2021,08,03,10,46,647.30
2021,08,03,10,47,650.00
2021,08,03,10,48,650.80
2021,08,03,10,49,652.00
2021,08,03,10,50,614.40
2021,08,03,10,51,640.10
2021,08,03,10,52,659.00
2021,08,03,10,53,661.20
2021,08,03,10,54,663.20
2021,08,03,10,55,661.00
2021,08,03,10,56,661.00
2021,08,03,10,57,666.20
2021,08,03,10,58,668.50
2021,08,03,10,59,670.50
2021,08,03,11,00,671.20
2021,08,03,11,01,674.00
2021,08,03,11,02,677.00
2021,08,03,11,03,678.40
2021,08,03,11,04,680.00
2021,08,03,11,05,684.30
2021,08,03,11,06,686.00
2021,08,03,11,07,686.90
2021,08,03,11,08,688.10
2021,08,03,11,09,691.00
2021,08,03,11,10,691.00
2021,08,03,11,11,692.90
2021,08,03,11,12,694.00
2021,08,03,11,13,695.70
2021,08,03,11,14,696.40
2021,08,03,11,15,700.00
2021,08,03,11,16,700.00
2021,08,03,11,17,700.00
2021,08,03,11,18,575.60
2021,08,03,11,19,503.00
2021,08,03,11,20,682.60
2021,08,03,11,21,706.90
2021,08,03,11,22,707.00
2021,08,03,11,23,708.70
2021,08,03,11,24,711.10
2021,08,03,11,25,711.20
2021,08,03,11,26,713.50
2021,08,03,11,27,716.70
2021,08,03,11,28,717.20
2021,08,03,11,29,719.40
2021,08,03,11,30,721.40
2021,08,03,11,31,722.90
2021,08,03,11,32,725.20
2021,08,03,11,33,728.20
2021,08,03,11,34,728.10
2021,08,03,11,35,729.20
2021,08,03,11,36,731.40
2021,08,03,11,37,734.50
2021,08,03,11,38,736.10
2021,08,03,11,39,736.70
2021,08,03,11,40,737.30
2021,08,03,11,41,739.50
2021,08,03,11,42,740.20
2021,08,03,11,43,742.50
2021,08,03,11,44,744.30
2021,08,03,11,45,745.00
2021,08,03,11,46,746.20
2021,08,03,11,47,747.00
2021,08,03,11,48,748.70
2021,08,03,11,49,739.90
2021,08,03,11,50,751.20
2021,08,03,11,51,752.00
2021,08,03,11,52,752.90
2021,08,03,11,53,754.00
2021,08,03,11,54,755.50
2021,08,03,11,55,757.80
2021,08,03,11,56,758.10
2021,08,03,11,57,759.80
2021,08,03,11,58,763.70
2021,08,03,11,59,765.00
2021,08,03,12,00,765.00
2021,08,03,12,01,765.00
2021,08,03,12,02,765.00
2021,08,03,12,03,767.80
2021,08,03,12,04,768.00
2021,08,03,12,05,768.00
2021,08,03,12,06,770.00
2021,08,03,12,07,772.60
2021,08,03,12,08,773.00
2021,08,03,12,09,773.00
2021,08,03,12,10,775.00
2021,08,03,12,11,775.00
2021,08,03,12,12,775.00
2021,08,03,12,13,775.00
2021,08,03,12,14,777.90
2021,08,03,12,15,779.30
2021,08,03,12,16,779.80
2021,08,03,12,17,780.00
2021,08,03,12,18,780.00
2021,08,03,12,19,780.00
2021,08,03,12,20,781.00
2021,08,03,12,21,782.00
2021,08,03,12,22,784.90
2021,08,03,12,23,784.30
2021,08,03,12,24,785.80
2021,08,03,12,25,785.10
2021,08,03,12,26,788.40
2021,08,03,12,27,789.00
2021,08,03,12,28,789.00
2021,08,03,12,29,789.00
2021,08,03,12,30,790.70
2021,08,03,12,31,792.90
2021,08,03,12,32,793.00
2021,08,03,12,33,793.60
2021,08,03,12,34,795.00
2021,08,03,12,35,795.60
2021,08,03,12,36,795.30
2021,08,03,12,37,795.90
2021,08,03,12,38,797.90
2021,08,03,12,39,798.00
2021,08,03,12,40,798.00
2021,08,03,12,41,798.00
2021,08,03,12,42,799.20
2021,08,03,12,43,800.00
2021,08,03,12,44,800.00
2021,08,03,12,45,800.00
2021,08,03,12,46,800.00
2021,08,03,12,47,800.70
2021,08,03,12,48,801.10
2021,08,03,12,49,801.30
2021,08,03,12,50,802.70
2021,08,03,12,51,803.00
2021,08,03,12,52,803.00
2021,08,03,12,53,803.50
2021,08,03,12,54,804.30
2021,08,03,12,55,803.00
2021,08,03,12,56,802.40
2021,08,03,12,57,802.70
2021,08,03,12,58,803.00
2021,08,03,12,59,808.80
2021,08,03,13,00,806.00
2021,08,03,13,01,805.30
2021,08,03,13,02,809.00
2021,08,03,13,03,809.00
2021,08,03,13,04,807.50
2021,08,03,13,05,807.00
2021,08,03,13,06,808.90
2021,08,03,13,07,808.50
2021,08,03,13,08,808.20
2021,08,03,13,09,809.50
2021,08,03,13,10,809.00
2021,08,03,13,11,807.50
2021,08,03,13,12,809.70
2021,08,03,13,13,809.20
2021,08,03,13,14,809.30
2021,08,03,13,15,807.70
2021,08,03,13,16,808.00
2021,08,03,13,17,808.70
2021,08,03,13,18,810.00
2021,08,03,13,19,809.20
2021,08,03,13,20,809.00
2021,08,03,13,21,809.00
2021,08,03,13,22,809.00
2021,08,03,13,23,809.50
2021,08,03,13,24,810.00
2021,08,03,13,25,810.00
2021,08,03,13,26,810.00
2021,08,03,13,27,810.00
2021,08,03,13,28,810.00
2021,08,03,13,29,810.00
2021,08,03,13,30,810.00
2021,08,03,13,31,809.40
2021,08,03,13,32,809.70
2021,08,03,13,33,813.40
2021,08,03,13,34,810.20
2021,08,03,13,35,810.40
2021,08,03,13,36,811.30
2021,08,03,13,37,810.00
2021,08,03,13,38,809.40
2021,08,03,13,39,809.70
2021,08,03,13,40,809.20
2021,08,03,13,41,809.10
2021,08,03,13,42,810.00
2021,08,03,13,43,810.00
2021,08,03,13,44,809.50
2021,08,03,13,45,809.60
2021,08,03,13,46,809.30
2021,08,03,13,47,809.00
2021,08,03,13,48,809.00
2021,08,03,13,49,809.00
2021,08,03,13,50,807.70
2021,08,03,13,51,805.90
2021,08,03,13,52,807.00
2021,08,03,13,53,807.00
2021,08,03,13,54,807.00
2021,08,03,13,55,805.40
2021,08,03,13,56,808.10
2021,08,03,13,57,805.70
2021,08,03,13,58,806.00
2021,08,03,13,59,803.70
2021,08,03,14,00,804.40
2021,08,03,14,01,805.00
2021,08,03,14,02,803.30
2021,08,03,14,03,804.50
2021,08,03,14,04,803.00
2021,08,03,14,05,802.50
2021,08,03,14,06,802.00
2021,08,03,14,07,802.70
2021,08,03,14,08,800.50
2021,08,03,14,09,800.00
2021,08,03,14,10,800.50
2021,08,03,14,11,802.00
2021,08,03,14,12,801.10
2021,08,03,14,13,800.00
2021,08,03,14,14,800.00
2021,08,03,14,15,800.00
2021,08,03,14,16,799.80
2021,08,03,14,17,798.00
2021,08,03,14,18,797.30
2021,08,03,14,19,796.00
2021,08,03,14,20,796.00
2021,08,03,14,21,795.30
2021,08,03,14,22,795.90
2021,08,03,14,23,796.00
2021,08,03,14,24,795.80
2021,08,03,14,25,795.00
2021,08,03,14,26,793.10
2021,08,03,14,27,792.20
2021,08,03,14,28,790.10
2021,08,03,14,29,788.20
2021,08,03,14,30,788.80
2021,08,03,14,31,787.50
2021,08,03,14,32,785.20
2021,08,03,14,33,784.00
2021,08,03,14,34,784.00
2021,08,03,14,35,784.00
2021,08,03,14,36,784.00
2021,08,03,14,37,780.20
2021,08,03,14,38,780.00
2021,08,03,14,39,779.60
2021,08,03,14,40,778.10
2021,08,03,14,41,775.80
2021,08,03,14,42,775.00
2021,08,03,14,43,773.20
2021,08,03,14,44,772.90
2021,08,03,14,45,772.00
2021,08,03,14,46,771.30
2021,08,03,14,47,770.00
2021,08,03,14,48,770.00
2021,08,03,14,49,768.40
2021,08,03,14,50,766.30
2021,08,03,14,51,765.70
2021,08,03,14,52,763.40
2021,08,03,14,53,765.00
2021,08,03,14,54,764.10
2021,08,03,14,55,763.00
2021,08,03,14,56,760.10
2021,08,03,14,57,759.00
2021,08,03,14,58,758.20
2021,08,03,14,59,758.30
2021,08,03,15,00,755.30
2021,08,03,15,01,754.00
2021,08,03,15,02,752.80
2021,08,03,15,03,752.00
2021,08,03,15,04,752.00
2021,08,03,15,05,749.20
2021,08,03,15,06,748.60
2021,08,03,15,07,746.30
2021,08,03,15,08,744.50
2021,08,03,15,09,742.80
2021,08,03,15,10,742.00
2021,08,03,15,11,738.60
2021,08,03,15,12,739.70
2021,08,03,15,13,737.30
2021,08,03,15,14,735.00
2021,08,03,15,15,732.20
2021,08,03,15,16,729.00
2021,08,03,15,17,729.00
2021,08,03,15,18,728.20
2021,08,03,15,19,725.60
2021,08,03,15,20,722.40
2021,08,03,15,21,723.30
2021,08,03,15,22,722.00
2021,08,03,15,23,721.40
2021,08,03,15,24,721.00
2021,08,03,15,25,719.30
2021,08,03,15,26,717.00
2021,08,03,15,27,716.60
2021,08,03,15,28,714.60
2021,08,03,15,29,713.00
2021,08,03,15,30,713.20
2021,08,03,15,31,709.60
2021,08,03,15,32,707.20
2021,08,03,15,33,707.50
2021,08,03,15,34,703.00
2021,08,03,15,35,702.30
2021,08,03,15,36,701.00
2021,08,03,15,37,700.40
2021,08,03,15,38,698.60
2021,08,03,15,39,693.80
2021,08,03,15,40,689.00
2021,08,03,15,41,689.00
2021,08,03,15,42,687.90
2021,08,03,15,43,686.00
2021,08,03,15,44,686.00
2021,08,03,15,45,688.20
2021,08,03,15,46,684.80
2021,08,03,15,47,681.80
2021,08,03,15,48,680.00
2021,08,03,15,49,679.00
2021,08,03,15,50,677.00
2021,08,03,15,51,677.00
2021,08,03,15,52,675.50
2021,08,03,15,53,675.00
2021,08,03,15,54,673.10
2021,08,03,15,55,672.30
2021,08,03,15,56,669.30
2021,08,03,15,57,667.10
2021,08,03,15,58,664.80
2021,08,03,15,59,664.00
2021,08,03,16,00,664.00
2021,08,03,16,01,662.80
2021,08,03,16,02,660.60
2021,08,03,16,03,659.00
2021,08,03,16,04,660.00
2021,08,03,16,05,658.10
2021,08,03,16,06,656.70
2021,08,03,16,07,657.00
2021,08,03,16,08,660.80
2021,08,03,16,09,660.50
2021,08,03,16,10,660.50
2021,08,03,16,11,663.00
2021,08,03,16,12,664.90
2021,08,03,16,13,667.40
2021,08,03,16,14,666.30
2021,08,03,16,15,632.30
2021,08,03,16,16,638.50
2021,08,03,16,17,627.00
2021,08,03,16,18,631.80
2021,08,03,16,19,632.50
2021,08,03,16,20,612.90
2021,08,03,16,21,591.70
2021,08,03,16,22,592.90
2021,08,03,16,23,566.60
2021,08,03,16,24,568.70
2021,08,03,16,25,566.20
2021,08,03,16,26,489.20
2021,08,03,16,27,455.00
2021,08,03,16,28,359.30
2021,08,03,16,29,378.80
2021,08,03,16,30,372.60
2021,08,03,16,31,386.20
2021,08,03,16,32,332.60
2021,08,03,16,33,314.20
2021,08,03,16,34,306.70
2021,08,03,16,35,276.00
2021,08,03,16,36,261.00
2021,08,03,16,37,250.50
2021,08,03,16,38,235.80
2021,08,03,16,39,225.00
2021,08,03,16,40,227.10
2021,08,03,16,41,226.30
2021,08,03,16,42,225.00
2021,08,03,16,43,226.40
2021,08,03,16,44,224.40
2021,08,03,16,45,240.30
2021,08,03,16,46,260.20
2021,08,03,16,47,277.90
2021,08,03,16,48,298.40
2021,08,03,16,49,332.40
2021,08,03,16,50,329.20
2021,08,03,16,51,331.20
2021,08,03,16,52,360.10
2021,08,03,16,53,396.90
2021,08,03,16,54,403.70
2021,08,03,16,55,401.00
2021,08,03,16,56,421.20
2021,08,03,16,57,452.20
2021,08,03,16,58,452.30
2021,08,03,16,59,447.50
2021,08,03,17,00,450.00
2021,08,03,17,01,439.90
2021,08,03,17,02,415.20
2021,08,03,17,03,388.60
2021,08,03,17,04,364.80
2021,08,03,17,05,345.20
2021,08,03,17,06,346.00
2021,08,03,17,07,355.00
2021,08,03,17,08,365.30